Location: Unspecified
(33.6682°S, 0.0000°E)
Time: 11:35:00
(UTC+00:00)

Courier 1B - Pass Details

Date: 22 June 2019
Orbit: 963 x 1209 km, 28.3° (Epoch: 21 July)

Event Time Altitude Azimuth Distance (km) Brightness Sun altitude
Exits shadow 05:02:31 - 324° (NW) 3,225 10.0 -24.6°
Reaches altitude 10° 05:03:20 10° 328° (NNW) 2,991 9.8 -24.4°
Maximum altitude 05:09:18 27° 22° (NNE) 1,936 9.4 -23.2°
Drops below altitude 10° 05:14:59 10° 77° (ENE) 2,849 11.1 -22.1°
Sets 05:18:03 0° 89° (E) 3,766 12.0 -21.5°
